Location: Heiligenberg
(48.5381°N, 7.3897°E)
Time: 02:11:48
(UTC+00:00)

Daily predictions for brighter satellites

Satellite Brightness Start Highest point End
(mag) Time Altitude Azimuth Time Altitude Azimuth Time Altitude Azimuth
Cosmos 1553 Rocket 4.0 00:03:21 34° SSW 00:06:07 70° WNW 00:12:20 10° N
NOSS 2-2 (D) 4.2 00:01:13 10° NW 00:06:10 86° SW 00:11:37 17° SE
Cosmos 1461 3.3 00:02:30 10° NW 00:06:28 42° WSW 00:06:31 42° WSW
Gblst 52 Del rocket 4.4 00:00:58 10° W 00:07:09 75° NNW 00:12:46 10° ENE
Cosmos 1867 3.5 00:05:01 35° SW 00:07:27 87° NW 00:12:59 10° NE
Cosmos 2221 Rocket 3.8 00:06:47 42° SW 00:07:59 58° WNW 00:12:22 10° N
Cosmos 1674 Rocket 3.4 00:06:55 51° SSW 00:07:59 83° W 00:12:21 10° N
Cosmos 2298 Rocket 4.1 00:07:41 39° S 00:09:33 66° ESE 00:14:50 10° NNE
Cosmos 1674 3.2 00:10:51 40° WSW 00:11:27 44° WNW 00:15:05 10° N
USA 306 3.4 00:11:52 40° SE 00:11:52 40° SE 00:15:45 10° ENE
Cosmos 1238 Rocket 3.1 00:09:42 10° NNW 00:12:06 37° WNW 00:12:06 37° WNW
Thor Agena Rocket 4.4 00:08:16 10° NNE 00:13:17 42° E 00:15:34 28° SSE
ATLAS CENTAUR R/B 3.2 00:10:43 10° WNW 00:13:59 20° WSW 00:13:59 20° WSW
USA 307 3.5 00:15:20 37° SE 00:15:20 37° SE 00:19:11 10° ENE
SL-16 R/B 4.0 00:16:08 15° SE 00:18:50 20° E 00:22:52 10° NE
ERBS 3.8 00:22:52 23° E 00:22:52 23° E 00:24:35 10° ENE
ATLAS 5 CENTAUR R/B 3.1 00:10:37 10° NW 00:22:53 57° WSW 00:24:40 36° S
Cosmos 1980 3.8 00:20:38 35° S 00:22:55 63° ESE 00:28:30 10° NNE
CZ-4C R/B 3.2 00:16:22 10° NW 00:23:24 51° WSW 00:27:53 27° S
Cosmos 1378 Rocket 3.8 00:22:19 42° SW 00:23:36 61° WNW 00:28:01 10° N
Cosmos 1455 Rocket 4.0 00:19:25 10° N 00:23:43 44° ENE 00:26:09 23° SE
Cosmos 2333 Rocket 3.4 00:19:42 15° WSW 00:23:48 36° NW 00:29:02 10° NNE
Cosmos 2322 4.5 00:20:47 21° WSW 00:24:21 46° NW 00:29:53 10° NNE
USA 215 3.9 00:19:52 10° NE 00:26:15 57° NNW 00:32:38 10° W
Cosmos 332 Rocket 4.3 00:28:23 32° SSE 00:30:05 47° ESE 00:34:41 10° NNE
NOSS 0 Rocket 3.9 00:29:23 32° SSW 00:32:30 88° ESE 00:38:48 10° NNE
USA 32 4.0 00:35:15 35° S 00:37:34 90° E 00:42:52 10° N
Meteor 2-10 Rocket 3.7 00:32:28 10° N 00:38:12 85° ENE 00:41:17 27° SSE
Cosmos 1975 Rocket 3.5 00:39:39 31° SSE 00:41:28 55° E 00:45:50 10° NNE
Cosmos 1745 Rocket 4.4 00:35:48 10° NNW 00:41:46 49° W 00:44:35 29° SSW
Cosmos 839 Rocket 4.2 00:37:29 10° NW 00:43:45 62° WSW 00:49:12 19° SSE
ADEOS Rocket 4.4 00:42:18 17° WSW 00:44:12 20° W 00:48:26 10° NW
USA 308 2.9 00:44:46 44° SSW 00:45:48 60° SE 00:49:55 10° ENE
Cosmos 2219 Rocket 3.5 00:42:56 13° WSW 00:47:07 32° NW 00:52:07 10° NNE
Cosmos 1025 Rocket 3.5 00:47:03 29° SSE 00:48:56 52° E 00:53:08 10° NNE
Cosmos 1455 3.9 00:46:33 10° N 00:49:49 28° ENE 00:52:38 12° SE
Cosmos 1269 Rocket 4.2 00:45:18 10° NNW 00:50:35 70° ENE 00:55:07 14° SSE
GP-B 3.1 00:51:57 10° N 00:56:22 68° W 00:58:07 35° SSW
Meteor 2-5 Rocket 4.0 00:55:38 25° S 00:59:03 66° E 01:04:41 10° NNE
CZ-2D R/B 2.6 00:53:59 10° NNE 00:59:17 55° E 01:02:28 23° S
Lacrosse 5 2.7 00:58:31 28° S 01:00:22 37° SE 01:05:04 10° ENE
Cosmos 1300 3.2 00:57:07 10° NNW 01:00:42 41° W 01:01:27 36° SW
USA 267 4.2 01:02:14 24° SW 01:03:15 25° SW 01:08:30 10° WNW
SL-14 R/B 4.2 01:02:27 28° WSW 01:03:37 34° WNW 01:07:12 10° N
Cosmos 371 Rocket 4.0 01:06:03 24° WSW 01:08:34 45° WNW 01:13:15 10° NNE
USA 305 2.8 01:07:08 28° WSW 01:09:14 88° NW 01:13:26 10° ENE
Cosmos 1544 Rocket 3.8 01:05:43 10° N 01:10:09 68° ENE 01:13:09 20° SSE
USA 229 DEB 4.4 01:03:50 10° NW 01:10:35 39° WSW 01:15:06 21° S
USA 229 4.4 01:03:55 10° NW 01:10:42 40° WSW 01:15:15 21° S
BREEZE-M DEB (TANK) 4.3 00:56:18 10° WSW 01:12:26 83° SSE 01:16:39 10° ENE
Cosmos 2237 Rocket 2.5 01:11:28 24° SW 01:14:53 61° WNW 01:20:34 10° NNE
COSMOS 2428 4.2 01:12:17 11° WSW 01:16:55 28° NW 01:21:48 10° NNE
AQUA 4.4 01:13:57 10° NNE 01:18:37 51° E 01:21:49 19° S
Cosmos 304 Rocket 4.1 01:17:17 26° SW 01:19:50 55° WNW 01:24:36 10° NNE
SL-16 R/B 2.5 01:14:42 13° SSE 01:20:22 89° WSW 01:26:40 10° NNW
Helios 1A 4.0 01:17:27 10° SE 01:21:28 45° ENE 01:25:31 10° N
SAR-Lupe-2 4.3 01:18:46 10° NNE 01:22:14 45° E 01:24:09 23° SSE
Lacrosse 5 rocket 2.4 01:21:54 24° SSE 01:23:12 30° SE 01:26:46 10° ENE
Cosmos 1953 4.3 01:23:18 10° NW 01:25:40 15° W 01:26:26 15° W
SME Rocket 3.7 01:24:35 28° SSW 01:26:12 41° W 01:30:58 10° NNW
Cosmos 2074 Rocket 4.0 01:22:02 10° N 01:28:22 88° W 01:33:59 14° S
Resurs 1-4 Rocket 2.1 01:23:12 10° NNE 01:28:30 85° WNW 01:31:56 23° SSW
Cosmos 2297 3.7 01:27:25 10° NNW 01:33:12 88° WSW 01:38:57 10° SSE
Cosmos 1943 Rocket 2.1 01:27:32 10° NNW 01:33:13 72° WSW 01:38:50 10° SSE
CRYOSAT 2 4.3 01:38:46 16° S 01:42:45 88° W 01:47:40 10° N
Cosmos 2184 Rocket 4.0 01:36:59 10° NNW 01:43:15 73° W 01:48:45 13° S
Cosmos 2278 Rocket 3.7 01:40:01 10° WNW 01:43:46 18° W 01:45:23 16° WSW
ADEOS II 2.2 01:39:10 10° NNE 01:44:27 73° ESE 01:48:40 16° S
IDEFIX/ARIANE 42P 2.9 01:40:06 10° NNE 01:45:21 63° ESE 01:49:52 14° S
USA 306 3.3 01:47:34 12° W 01:51:20 58° NNW 01:55:28 10° ENE
Cosmos 2084 Rocket 3.4 01:49:15 21° WSW 01:51:39 64° NW 01:55:26 10° NE
Cosmos 292 Rocket 4.2 01:48:10 16° S 01:51:54 56° ESE 01:56:36 10° NNE
USA 307 3.3 01:51:04 12° W 01:54:48 60° NNW 01:58:58 10° ENE
NPP 3.8 01:51:09 10° N 01:56:30 63° WNW 02:00:35 17° SSW
ERBS 3.1 01:54:54 15° W 01:57:09 39° NNW 02:00:05 10° NE
Cosmos 2369 Rocket 2.4 01:52:53 10° NNW 01:58:31 77° ENE 02:04:06 10° SSE
USA-17 4.5 01:56:28 10° NW 01:59:46 79° SW 02:04:01 10° SE
CZ-4 R/B 4.4 01:57:02 10° N 02:01:26 42° WNW 02:04:41 17° SW
Cosmos 614 Rocket 4.0 01:56:56 10° NNW 02:02:07 67° WSW 02:07:16 10° S
Cosmos 2228 3.2 01:57:44 10° N 02:02:08 76° E 02:06:28 10° SSE
IRS-1D 4.2 01:57:04 10° NNE 02:02:19 54° E 02:07:29 10° S
SL-16 R/B 2.3 01:58:00 18° SW 02:02:21 73° WNW 02:08:03 10° NNE
EO 1 Del DPAF 3.0 01:59:08 10° NNE 02:02:40 87° ESE 02:05:16 17° SSW
Cosmos 2251 Rocket 3.6 01:58:51 10° NNW 02:04:08 82° ENE 02:09:26 10° SSE
Meteor 1-28 Rocket 3.3 02:03:37 15° S 02:06:34 53° W 02:10:15 10° NNW
Cosmos 1656 Rocket 3.9 02:02:28 10° NNW 02:07:54 73° ENE 02:13:19 10° SE
USA 215 4.5 02:02:34 10° ENE 02:08:39 43° N 02:14:44 10° WNW
COSMOS 2455 3.0 02:04:48 15° SSW 02:09:52 74° ESE 02:15:54 10° NE
Cosmos 1536 Rocket 3.7 02:08:02 16° SSW 02:11:30 62° WNW 02:15:52 10° N
Nadezhda 1 Rocket 4.1 02:15:05 12° SSW 02:20:59 65° WNW 02:27:16 10° N
MSX 3.9 02:16:37 10° NNE 02:22:26 87° WNW 02:28:12 10° SSW
Cosmos 1455 3.5 02:22:14 10° NW 02:25:09 22° W 02:27:23 14° SW
USA 308 3.7 02:21:29 10° W 02:25:32 47° NNW 02:29:37 10° ENE
MOS 1 Rocket 4.1 02:23:22 13° SSW 02:26:27 28° W 02:30:12 10° NW
Cosmos 1271 Rocket 3.4 02:25:36 10° NNW 02:29:08 37° W 02:32:41 10° SSW
Cosmos 1606 Rocket 3.5 02:28:53 10° NNW 02:33:19 78° W 02:37:41 10° S
ALOS 3.7 02:32:22 10° NNE 02:36:42 37° E 02:41:00 10° SSE
CZ-2C R/B 3.8 02:34:02 10° NNE 02:38:52 39° E 02:43:33 10° SSE
CZ-2D R/B 3.5 02:34:35 10° N 02:39:00 26° WNW 02:43:21 10° WSW
Lacrosse 5 2.3 02:38:09 10° WSW 02:43:12 61° NNW 02:48:16 10° NE
Helios 1B rocket 2.8 02:39:33 10° NNE 02:43:37 65° ESE 02:47:39 10° S
Cosmos 2366 rocket 4.1 02:39:20 10° N 02:45:32 84° E 02:51:44 10° S
Cosmos 2341 Rocket 4.1 02:39:41 10° NNW 02:46:03 71° W 02:52:24 10° S
USA 305 4.1 02:45:11 10° W 02:49:09 40° N 02:53:07 10° ENE
Meteor 2-1 Rocket 4.3 02:44:56 10° NNW 02:50:38 62° W 02:56:12 10° S
BREEZE-M DEB (TANK) 3.4 02:47:37 10° SW 02:51:40 31° SSE 02:53:50 10° E
Cosmos 407 Rocket 3.5 02:46:45 10° NNW 02:52:04 72° WSW 02:57:18 10° SSE
SL-8 Rocket 4.1 02:46:29 10° NNW 02:52:48 75° W 02:59:06 10° S
Cosmos 1328 3.9 02:53:13 10° SSW 02:57:08 65° W 03:01:08 10° N
Helios 1A 4.5 02:54:04 10° SW 02:57:11 20° W 03:00:20 10° NW
Cosmos 1943 3.3 02:51:37 10° SSW 02:57:19 87° ESE 03:03:03 10° NNE
Genesis I 3.2 02:55:45 10° NW 02:59:48 65° SW 03:03:44 10° SSE
Cosmos 2237 Rocket 4.3 02:56:43 10° WNW 03:00:11 16° NW 03:03:41 10° N
